Regional Weather Roundup
Issued by NWS Grand Forks, ND

Home | Current Version | Previous Version | Text Only | Print | Product List | Glossary Off
Versions: 1 2 3 4 5 6 7 8 9 10 11 12 13 14 15 16 17 18 19 20 21 22 23 24 25 26 27 28 29 30 31 32 33 34 35 36 37 38 39 40 41 42 43 44 45 46 47 48 49 50

000
ASUS43 KFGF 310410
RWRFGF
PRAIRIE TO PINES  WEATHER ROUNDUP
NATIONAL WEATHER SERVICE EASTERN NORTH DAKOTA/GRAND FORKS ND
1100 PM CDT THU JUL 30 2015

 **SATELLITE DATA USED TO AUGMENT SKY COVER AT AUTOMATED STATIONS**
 *****  WEATHER ACROSS EASTERN NORTH DAKOTA  *****

CITY           SKY/WX    TMP DP  RH WIND       PRES   REMARKS
GRAND FORKS    CLEAR     60  52  74 W8        30.02R
GRAND FRKS AFB CLEAR     63  51  64 W8        30.03S
GRAND FRKS NWS   N/A     64 N/A N/A W5          N/A
DEVILS LAKE    CLEAR     61  50  67 NW7       30.07S
FARGO          CLEAR     69  55  60 NW10      30.05R
WAHPETON ARPT  CLEAR     61  54  77 W6        30.06R
$$

 ***** WEATHER ACROSS CENTRAL AND WESTERN NORTH DAKOTA  *****

CITY           SKY/WX    TMP DP  RH WIND       PRES   REMARKS
BISMARCK       CLEAR     65  52  62 CALM      30.15R
MINOT          PTCLDY    67  46  47 SW6       30.12R
JAMESTOWN      CLEAR     63  53  70 W7        30.10R
MINOT AFB      CLEAR     56  53  88 W9        30.11S
GARRISON         N/A     62  54  74 NW5       30.15R
WILLISTON      CLEAR     63  49  60 CALM      30.16R
DICKINSON      CLEAR     64  48  56 E7        30.18R
HETTINGER      CLEAR     61  49  64 NE6       30.20R
$$

 *****  OTHER AIRPORT OBSERVATIONS IN OUR AREA  *****

CITY           SKY/WX    TMP DP  RH WIND       PRES   REMARKS
WALHALLA       FAIR      66  50  55 MISG      30.01R
GRAFTON AIRPOR FAIR      66  54  63 W12       30.02R
VALLEY CITY AR FAIR      63  54  72 W8        30.09S
CANDO          NOT AVBL
CAVALIER APRT  FAIR      63  54  72 W8        30.00S
GWINNER        FAIR      64  57  77 W8        30.10R
SHEYENNE NWR     N/A     65  55  71 NW6       29.95S
ROLLA          FAIR      54  50  87 W10       30.10R
 ***** THE ABOVE OBSERVATIONS ARE NON NWS ARE NOT QUALITY
       CONTROLLED AND MAY MIS-REPORT RAIN FOR SNOW...
$$

  *****  WEATHER ACROSS NORTHERN MINNESOTA  *****

CITY           SKY/WX    TMP DP  RH WIND       PRES   REMARKS
FLAG ISLAND    PTCLDY    66  55  68 W7        29.91S
WARROAD        CLEAR     64  57  77 NW8       29.95R
ROSEAU         CLEAR     64  55  72 W8        29.96R
HALLOCK        CLEAR     61  54  77 W9        29.98S
THF RVR FALLS  CLEAR     64  50  59 W8        30.01R
BAUDETTE       PTCLDY    66  55  67 W12       29.92S
WASKISH        CLEAR     70  57  64 W14       29.95R
CROOKSTON      CLEAR     61  52  72 NW7       30.03R
$$
  *****  WEATHER ACROSS CENTRAL AND WEST MINNESOTA  *****

CITY           SKY/WX    TMP DP  RH WIND       PRES   REMARKS
FOSSTON        CLEAR     64  52  63 W12       30.03R
BEMIDJI        PTCLDY    68  51  56 W10       29.99S
PARK RAPIDS    CLEAR     67  53  61 W13       30.01S
ELBOW LAKE     FAIR      65  58  78 W6        30.05S
WADENA         CLEAR     64  54  68 W8        30.03S
DETROIT LAKES  CLEAR     70  54  56 NW14      30.06R
MOORHEAD       CLEAR     68  55  64 NW10      30.06R
FERGUS FALLS   CLEAR     64  57  77 W5        30.05R
MORRIS MN      CLEAR     64  59  82 W6        30.06S
STAPLES        CLEAR     64  54  68 W6        30.02F
$$
  *****  WEATHER ELSEWHERE ACROSS MINNESOTA  *****

CITY           SKY/WX    TMP DP  RH WIND       PRES   REMARKS
DULUTH         PTCLDY    64  53  67 W10       29.94F
INTRNTL FALLS  MOCLDY    60  56  86 SW3       29.91S
ELY            CLOUDY    64  52  63 W5        29.90S
CLOQUET        PTCLDY    68  54  60 SW6       29.96S
WHEATON        CLEAR     64  57  77 W3        30.08S
BRAINERD       CLEAR     70  54  56 W8        30.01S
HIBBING        CLEAR     64  54  69 SW5       29.94S
ALEXANDRIA     CLEAR     67  59  75 W7        30.07R
SAINT CLOUD    CLEAR     65  60  84 SW6       30.02S
MINNEAPOLIS    PTCLDY    76  61  59 SW3       30.02R
$$

  *****  WEATHER ACROSS SOUTH DAKOTA  *****

CITY           SKY/WX    TMP DP  RH WIND       PRES   REMARKS
SIOUX FALLS    PTCLDY    70  62  76 SW3       30.11R
BROOKINGS      CLOUDY    70  59  68 NW3       30.14R
WATERTOWN      CLEAR     69  58  67 W5        30.12R
HURON          CLEAR     72  60  66 NE7       30.11R
SISSETON         N/A     66  56  70 W9        30.08R
ABERDEEN       CLEAR     63  54  72 NW3       30.12R
MITCHELL       CLEAR     69  62  78 CALM      30.11R
PIERRE         CLEAR     69  56  62 E5        30.12R
MOBRIDGE       CLEAR     71  53  52 E8        30.13R
RAPID CITY     CLEAR     65  51  60 W7        30.20R
$$

  *****  SOME WEATHER IN NEARBY STATES *****

CITY           SKY/WX    TMP DP  RH WIND       PRES   REMARKS
GLASGOW MT     CLEAR     76  41  28 CALM      30.14R
GREAT FALLS MT CLEAR     74  40  29 E9        30.17R
CHEYENNE WY    CLEAR     65  43  44 E9        30.40R
SCOTTSBLUFF NE CLEAR     71  49  45 NE9       30.26R
OMAHA NE       CLEAR     75  66  73 SE5       30.13R
DES MOINES IA  CLEAR     75  65  70 SW6       30.11R
DAVENPORT IA   CLEAR     67  65  93 W3        30.08S
CHICAGO IL     CLEAR     76  60  57 W8        30.01S
EAU CLAIRE WI  CLEAR     67  57  70 SW6       29.99S
LA CROSSE WI   CLEAR     74  59  59 SW5       30.02S
$$

  *****  SOME NATIONAL WEATHER *****

CITY           SKY/WX    TMP DP  RH WIND       PRES   REMARKS
LA GUARDIA NY  MOCLDY    79  72  79 CALM      29.83S
RALEIGH NC     MOCLDY    80  75  84 CALM      29.92S
ATLANTA GA     PTCLDY    79  72  79 NW6       29.98S
NEW ORLEANS LA CLOUDY    80  74  81 N3        29.99F
OKLAHOMA CITY  PTCLDY    81  75  82 E8        30.13S
ALBUQUERQUE NM MOCLDY    73  58  59 SE3       30.35R
SALT LAKE CITY PTCLDY    77  36  22 S5        30.20R
LOS ANGELES CA PTCLDY    70  66  87 W10       30.00R
BOISE ID       CLEAR     84  39  20 N3        30.11S
SEATTLE WA     CLEAR     82  43  25 N8        30.02F
$$

*** WEATHER ACROSS MANITOBA...SASKATCHEWAN AND ONTARIO ***
                ***ONTARIO***

CITY           SKY/WX    TMP DP  RH WIND       PRES   REMARKS
GERALDTON      PTCLDY    59  57  94 W7        29.72R
THUNDER BAY    PTCLDY    59  57  94 W8        29.81F
SIOUX LOOKOUT  MOCLDY    63  57  82 NW8       29.82S
TORONTO        PTCLDY    72  57  60 W9        29.87R
BIG TROUT LK   CLEAR     59  54  82 NW13G21   29.61S
PICKLE LAKE    NOT AVBL
DRYDEN         MOCLDY    59  55  88 W12       29.86S
KENORA         MOCLDY    61  55  82 W7        29.90S
$$
                *** MANITOBA***

CITY           SKY/WX    TMP DP  RH WIND       PRES   REMARKS
BRANDON        PTCLDY    52  50  93 W6        30.05R
DAUPHIN        CLEAR     59  54  82 W9        29.99R
ISLAND LAKE    MOCLDY    63  54  72 NW8       29.77R
PILOT MOUND      N/A     59  50  72 W6          N/A
THE PAS        PTCLDY    61  55  82 W8        29.91S
THOMPSON       MOCLDY    59  54  82 W5        29.80R
WINNIPEG       PTCLDY    59  55  88 W9        29.96R
LYNN LAKE      PTCLDY    61  54  77 N9        29.87R
CHURCHILL      PTCLDY    52  50  93 N12       29.68S
GILLAM         LGT RAIN  63  57  82 NW12      29.70F
$$
                ***SASKATCHEWAN***

CITY           SKY/WX    TMP DP  RH WIND       PRES   REMARKS
ESTEVAN        NOT AVBL
KINDERSLEY     NOT AVBL
LLOYDMINSTER   PTCLDY    59  46  63 NW6       30.13R
PRINCE ALBERT  PTCLDY    59  50  72 W6        30.04R
REGINA         PTCLDY    57  55  94 W5        30.12R
YORKTON        CLEAR     59  52  77 SW10      30.05R
N. BATTLEFORD  CLEAR     59  46  63 W2        30.13R
LA RONGE       PTCLDY    57  54  88 W5        29.99F
SASKATOON      PTCLDY    57  48  72 W6        30.11R
SWIFT CURRENT  CLEAR     70  45  40 NW3       30.16R
$$
NOTE: THESE ARE AUTOMATED STATIONS WITH LIMITED QUALITY CONTROL
      "FAIR" INDICATES FEW OR NO CLOUDS BELOW 12,000 FEET WITH NO
      SIGNIFICANT WEATHER AND/OR OBSTRUCTIONS TO VISIBILITY.
      SKY/WX - SKY CONDITION AND SIGNIFICANT WEATHER.
      TMP - AIR TEMPERATURE.    DP   - DEWPOINT TEMPERATURE.
      RH  - RELATIVE HUMIDITY.  PRES - PRESSURE.
      HX  - HEAT INDEX.         WCI  - WIND CHILL INDEX.
$



USA.gov is the U.S. government's official web portal to all federal, state and local government web resources and services.